Satellite-Ground Cal/Val Region Overpasses Predictions

Prediction of Satellite NPP Overpassing Cal/Val Region: PacNW

Region Location: (Latitude: 10.00, Longitude: 139.50) to (Latitude: 22.70, Longitude: 165.60).

Table of predicted overpasses for the next 14.0 days since TLE Epoch: 10/8/2016
Interval Starting Time Starting Location Ending Time Ending Location
1 10/09/2016 03:37:00 ( 10.05, 145.62) 10/09/2016 03:40:35 ( 22.68, 142.62)
2 10/09/2016 14:30:30 ( 11.69, 165.60) 10/09/2016 14:30:58 ( 10.05, 165.22)
3 10/09/2016 16:08:53 ( 22.67, 142.84) 10/09/2016 16:12:28 ( 10.04, 139.84)
4 10/10/2016 03:17:57 ( 10.00, 150.38) 10/10/2016 03:21:33 ( 22.68, 147.37)
5 10/10/2016 15:49:51 ( 22.66, 147.59) 10/10/2016 15:53:26 ( 10.04, 144.60)
6 10/11/2016 02:58:56 ( 10.01, 155.13) 10/11/2016 03:02:32 ( 22.69, 152.12)
7 10/11/2016 15:30:50 ( 22.65, 152.34) 10/11/2016 15:34:25 ( 10.03, 149.35)
8 10/12/2016 02:39:55 ( 10.01, 159.89) 10/12/2016 02:43:31 ( 22.69, 156.88)
9 10/12/2016 15:11:48 ( 22.65, 157.10) 10/12/2016 15:15:23 ( 10.02, 154.10)
10 10/13/2016 02:20:53 ( 10.02, 164.64) 10/13/2016 02:24:28 ( 22.64, 161.64)
11 10/13/2016 14:52:46 ( 22.70, 161.86) 10/13/2016 14:56:22 ( 10.02, 158.85)
12 10/14/2016 03:43:22 ( 10.03, 144.02) 10/14/2016 03:46:57 ( 22.66, 141.02)
13 10/14/2016 14:34:55 ( 18.52, 165.59) 10/14/2016 14:37:20 ( 10.01, 163.60)
14 10/14/2016 16:15:14 ( 22.68, 141.24) 10/14/2016 16:17:16 ( 15.53, 139.51)
15 10/15/2016 03:24:20 ( 10.04, 148.77) 10/15/2016 03:27:55 ( 22.66, 145.77)
16 10/15/2016 15:56:13 ( 22.68, 145.99) 10/15/2016 15:59:48 ( 10.05, 142.99)
17 10/16/2016 03:05:19 ( 10.05, 153.52) 10/16/2016 03:08:54 ( 22.67, 150.52)
18 10/16/2016 15:37:11 ( 22.67, 150.74) 10/16/2016 15:40:46 ( 10.04, 147.75)
19 10/17/2016 02:46:16 ( 10.00, 158.29) 10/17/2016 02:49:52 ( 22.68, 155.27)
20 10/17/2016 15:18:10 ( 22.66, 155.50) 10/17/2016 15:21:45 ( 10.03, 152.50)
21 10/18/2016 02:27:15 ( 10.01, 163.04) 10/18/2016 02:30:51 ( 22.69, 160.03)
22 10/18/2016 14:59:09 ( 22.64, 160.25) 10/18/2016 15:02:44 ( 10.02, 157.25)
23
